Weather History for KIMT - September, 2013

Change the Weather History Date:

Tuesday, September 3, 2013

  Actual Average Record
Temperature  
Mean Temperature 58 °F -  
Max Temperature 75 °F 72 °F 92 °F (1983)
Min Temperature 42 °F 49 °F 25 °F (1946)
Degree Days  
Heating Degree Days 6    
Growing Degree Days 8 (Base 50)    
Moisture  
Dew Point 49 °F    
Average Humidity 70    
Maximum Humidity 100    
Minimum Humidity 40    
Precipitation  
Precipitation 0.00 in - - ()
Sea Level Pressure  
Sea Level Pressure 30.00 in    
Wind  
Wind Speed 5 mph (West)    
Max Wind Speed 12 mph    
Max Gust Speed -    
Visibility 10 miles    
Events      
Averages and records for this station are not official NWS values.
T = Trace of Precipitation, MM = Missing Value Source: NWS Daily Summary

Daily Weather History Graph

Daily Weather History Graph

Search for Another Location

Airport or City:

Trip Planner

Search our weather history database for the weather conditions in past years. The results will help you decide how hot, cold, wet, or windy it might be!

Date:

Astronomy

Sep. 03, 2013 Rise Set
Actual Time 6:16 AM CDT 7:26 PM CDT
Civil Twilight 5:45 AM CDT 7:56 PM CDT
Nautical Twilight 5:08 AM CDT 8:33 PM CDT
Astronomical Twilight 4:29 AM CDT 9:12 PM CDT
Moon 4:27 AM CDT (9/3) 6:14 PM CDT (9/3)
Length of Visible Light 14h 11m
Length of Day
13h 10m
Waning Crescent, 3% of the Moon is Illuminated
Sep 3
Waning Crescent
Sep 5
New
Sep 12
First Quarter
Sep 19
Full
Sep 26
Last Quarter

Hourly Weather History & Observations

Time (CDT) Temp. Windchill Dew Point Humidity Pressure Visibility Wind Dir Wind Speed Gust Speed Precip Events Conditions
12:54 AM 48.9 °F - 46.9 °F 93% 30.03 in 10.0 mi NW 5.8 mph - N/A   Clear
1:54 AM 48.9 °F - 46.0 °F 90% 30.03 in 10.0 mi NW 5.8 mph - N/A   Clear
2:54 AM 46.9 °F - 44.1 °F 90% 30.03 in 10.0 mi Calm Calm - N/A   Clear
3:54 AM 48.0 °F - 45.0 °F 89% 30.03 in 10.0 mi West 3.5 mph - N/A   Clear
4:54 AM 43.0 °F - 42.1 °F 97% 30.03 in 2.0 mi Calm Calm - N/A   Clear
5:06 AM 42.8 °F - 42.8 °F 100% 30.00 in 10.0 mi Calm Calm - N/A   Clear
5:54 AM 46.0 °F 44.8 °F 44.1 °F 93% 30.04 in 10.0 mi WNW 3.5 mph - N/A   Clear
6:54 AM 46.9 °F - 45.0 °F 93% 30.05 in 10.0 mi Calm Calm - N/A   Clear
7:54 AM 51.1 °F - 46.9 °F 86% 30.05 in 10.0 mi Calm Calm - N/A   Clear
8:54 AM 57.0 °F - 50.0 °F 77% 30.06 in 10.0 mi WNW 6.9 mph - N/A   Clear
9:54 AM 62.1 °F - 51.1 °F 67% 30.05 in 10.0 mi WNW 5.8 mph - N/A   Clear
10:54 AM 66.0 °F - 51.1 °F 59% 30.04 in 10.0 mi WNW 10.4 mph - N/A   Clear
11:54 AM 69.1 °F - 50.0 °F 51% 30.02 in 10.0 mi WNW 10.4 mph - N/A   Clear
12:54 PM 72.0 °F - 51.1 °F 48% 30.00 in 10.0 mi SW 8.1 mph - N/A   Clear
1:54 PM 73.0 °F - 48.9 °F 42% 29.98 in 10.0 mi West 11.5 mph - N/A   Clear
2:54 PM 73.9 °F - 48.9 °F 41% 29.97 in 10.0 mi West 8.1 mph - N/A   Clear
3:54 PM 75.0 °F - 48.9 °F 40% 29.95 in 10.0 mi West 5.8 mph - N/A   Clear
4:54 PM 75.0 °F - 50.0 °F 41% 29.94 in 10.0 mi WSW 5.8 mph - N/A   Clear
5:54 PM 73.0 °F - 48.9 °F 42% 29.94 in 10.0 mi West 8.1 mph - N/A   Clear
6:54 PM 70.0 °F - 52.0 °F 53% 29.94 in 10.0 mi Calm Calm - N/A   Clear
7:54 PM 64.9 °F - 54.0 °F 68% 29.94 in 10.0 mi WSW 3.5 mph - N/A   Clear
8:54 PM 63.0 °F - 52.0 °F 67% 29.95 in 10.0 mi Calm Calm - N/A   Clear
9:54 PM 63.0 °F - 52.0 °F 67% 29.94 in 10.0 mi West 4.6 mph - N/A   Clear
10:54 PM 60.1 °F - 52.0 °F 75% 29.94 in 10.0 mi WNW 3.5 mph - N/A   Clear
11:54 PM 61.0 °F - 53.1 °F 75% 29.94 in 10.0 mi WNW 10.4 mph - N/A   Clear